This is the latest recevied weather packets stored in our database for station/object DG7FDL-7. If no packets are shown the sender has not sent any weather packets the latest 10 day(s).
| Time | Temp. | Humidity | Pressure | Rain* | Wind** | Luminosity | Snow |
|---|---|---|---|---|---|---|---|
| 1777775774 | 23.89° C | 36% | 1015.9 hPa | - | - | - | - |
| 1777774876 | 23.89° C | 37% | 1016 hPa | - | - | - | - |
| 1777773974 | 24.44° C | 36% | 1016.1 hPa | - | - | - | - |
| 1777773074 | 24.44° C | 37% | 1016.2 hPa | - | - | - | - |
| 1777772174 | 23.89° C | 37% | 1016.2 hPa | - | - | - | - |
| 1777771274 | 23.89° C | 37% | 1016.3 hPa | - | - | - | - |
| 1777770374 | 24.44° C | 37% | 1016.3 hPa | - | - | - | - |
| 1777769477 | 23.89° C | 36% | 1016.5 hPa | - | - | - | - |
| 1777768574 | 23.89° C | 36% | 1016.5 hPa | - | - | - | - |
| 1777767674 | 23.89° C | 36% | 1016.7 hPa | - | - | - | - |
| 1777766774 | 24.44° C | 36% | 1016.8 hPa | - | - | - | - |
| 1777765881 | 23.89° C | 37% | 1016.9 hPa | - | - | - | - |
| 1777764971 | 23.89° C | 37% | 1017 hPa | - | - | - | - |
| 1777764081 | 23.89° C | 37% | 1017 hPa | - | - | - | - |
| 1777763171 | 23.89° C | 37% | 1016.9 hPa | - | - | - | - |
| 1777762269 | 23.89° C | 37% | 1017 hPa | - | - | - | - |
| 1777761368 | 23.89° C | 37% | 1017 hPa | - | - | - | - |
| 1777760481 | 23.89° C | 37% | 1017 hPa | - | - | - | - |
| 1777759568 | 23.89° C | 36% | 1017 hPa | - | - | - | - |
| 1777758686 | 23.33° C | 36% | 1017 hPa | - | - | - | - |
| 1777757778 | 21.67° C | 38% | 1017.3 hPa | - | - | - | - |
| 1777756882 | 23.33° C | 36% | 1017.2 hPa | - | - | - | - |
| 1777755968 | 23.33° C | 36% | 1017.3 hPa | - | - | - | - |
| 1777755077 | 25° C | 35% | 1017.5 hPa | - | - | - | - |
| 1777754168 | 24.44° C | 36% | 1017.4 hPa | - | - | - | - |
* Rain since midnight (hover to see other rain measurements)
** Current wind speed in m/s (hover to see current wind gust speed)